User: anonymous
Location: Natural Bridges National Monument
(37.6093°N, 109.9767°W)
Time: 13:36:57
(UTC-06:00)
Language:

Cosmos 1727 Rocket - Orbit

View from above orbital plane
View from above orbital plane
View from above satellite
View from above satellite

Ground track
Ground track

The orbit data is extracted from the following two-line orbital elements,

1 16511U 86008B   14211.76664365  .00000056  00000-0  42129-4 0  5469
2 16511 082.9447 280.3550 0023438 345.5789 152.2652 13.75766374431565
Epoch (UTC): 30 July 2014 18:23:58
Eccentricity: 0.0023438
inclination: 82.9447°
perigee height: 961 km
apogee height: 996 km
right ascension of ascending node: 280.3550°
argument of perigee: 345.5789°
revolutions per day: 13.75766374
mean anomaly at epoch: 152.2652°
orbit number at epoch: 43156

The dashed part of the orbit path shows where the satellite is in the earth's shadow,  

DLR